TimeEDT,TemperatureF,Dew PointF,Humidity,Sea Level PressureIn,VisibilityMPH,Wind Direction,Wind SpeedMPH,Gust SpeedMPH,PrecipitationIn,Events,Conditions,WindDirDegrees,DateUTC
12:55 AM,62.6,53.6,72,29.96,10.0,ENE,3.5,-,N/A,,Overcast,60,2012-10-15 04:55:00
1:15 AM,62.6,53.6,72,29.94,10.0,Variable,5.8,-,N/A,,Overcast,0,2012-10-15 05:15:00
1:35 AM,62.6,53.6,72,29.94,10.0,ENE,3.5,-,N/A,,Overcast,60,2012-10-15 05:35:00
1:55 AM,62.6,53.6,72,29.93,10.0,NE,4.6,-,N/A,,Overcast,50,2012-10-15 05:55:00
2:15 AM,62.6,55.4,77,29.93,10.0,Variable,3.5,-,N/A,,Overcast,0,2012-10-15 06:15:00
2:35 AM,62.6,55.4,77,29.94,6.0,Calm,Calm,-,N/A,Rain,Light Rain,0,2012-10-15 06:35:00
2:55 AM,62.6,57.2,82,29.93,10.0,NNW,3.5,-,N/A,,Overcast,340,2012-10-15 06:55:00
3:15 AM,60.8,57.2,88,29.94,8.0,West,8.1,-,N/A,Rain,Rain,280,2012-10-15 07:15:00
3:35 AM,59.0,57.2,94,29.95,5.0,West,8.1,-,N/A,Rain,Heavy Rain,280,2012-10-15 07:35:00
3:55 AM,59.0,57.2,94,29.94,8.0,Variable,5.8,-,N/A,Rain,Light Rain,0,2012-10-15 07:55:00
4:15 AM,57.2,57.2,100,29.93,2.5,ESE,3.5,-,N/A,Rain,Rain,110,2012-10-15 08:15:00
4:35 AM,57.2,57.2,100,29.95,8.0,West,4.6,-,N/A,Rain,Light Rain,270,2012-10-15 08:35:00
4:55 AM,57.2,57.2,100,29.94,5.0,Calm,Calm,-,N/A,Rain,Rain,0,2012-10-15 08:55:00
5:15 AM,57.2,57.2,100,29.91,10.0,Calm,Calm,-,N/A,Rain,Heavy Rain,0,2012-10-15 09:15:00
5:35 AM,57.2,57.2,100,29.90,6.0,Calm,Calm,-,N/A,Rain,Rain,0,2012-10-15 09:35:00
5:55 AM,57.2,57.2,100,29.92,6.0,West,4.6,-,N/A,Rain,Rain,280,2012-10-15 09:55:00
6:15 AM,57.2,57.2,100,29.91,8.0,Calm,Calm,-,N/A,Rain,Light Rain,0,2012-10-15 10:15:00
6:55 AM,57.2,57.2,100,29.91,10.0,Calm,Calm,-,N/A,,Overcast,0,2012-10-15 10:55:00
7:15 AM,57.2,57.2,100,29.90,10.0,Calm,Calm,-,N/A,,Overcast,0,2012-10-15 11:15:00
7:35 AM,57.2,57.2,100,29.90,10.0,Calm,Calm,-,N/A,,Overcast,0,2012-10-15 11:35:00
7:55 AM,57.2,57.2,100,29.90,10.0,Calm,Calm,-,N/A,,Light Drizzle,0,2012-10-15 11:55:00
8:15 AM,57.2,57.2,100,29.91,10.0,SW,4.6,-,N/A,,Overcast,230,2012-10-15 12:15:00
8:35 AM,59.0,57.2,94,29.92,10.0,WSW,6.9,-,N/A,,Overcast,250,2012-10-15 12:35:00
8:55 AM,59.0,57.2,94,29.93,10.0,WSW,6.9,-,N/A,Rain,Light Rain,240,2012-10-15 12:55:00
9:15 AM,59.0,57.2,94,29.92,6.0,WSW,8.1,-,N/A,Rain,Rain,250,2012-10-15 13:15:00
9:35 AM,59.0,57.2,94,29.92,8.0,West,8.1,-,N/A,Rain,Light Rain,270,2012-10-15 13:35:00
9:55 AM,59.0,57.2,94,29.92,7.0,West,6.9,-,N/A,Rain,Light Rain,260,2012-10-15 13:55:00
10:15 AM,60.8,57.2,88,29.92,10.0,WSW,8.1,-,N/A,,Overcast,250,2012-10-15 14:15:00
10:35 AM,59.0,55.4,88,29.93,10.0,West,8.1,-,N/A,,Mostly Cloudy,260,2012-10-15 14:35:00
10:55 AM,60.8,55.4,82,29.92,10.0,WNW,5.8,-,N/A,,Mostly Cloudy,300,2012-10-15 14:55:00
11:15 AM,62.6,55.4,77,29.92,10.0,WSW,9.2,-,N/A,,Partly Cloudy,240,2012-10-15 15:15:00
11:55 AM,62.6,53.6,72,29.92,10.0,WSW,11.5,-,N/A,,Partly Cloudy,240,2012-10-15 15:55:00
12:15 PM,62.6,51.8,68,29.92,10.0,West,9.2,-,N/A,,Scattered Clouds,280,2012-10-15 16:15:00
12:35 PM,64.4,51.8,64,29.92,10.0,WSW,13.8,-,N/A,,Scattered Clouds,240,2012-10-15 16:35:00
12:55 PM,64.4,50.0,59,29.91,10.0,WSW,12.7,-,N/A,,Scattered Clouds,240,2012-10-15 16:55:00
1:15 PM,64.4,48.2,56,29.90,10.0,WSW,12.7,-,N/A,,Partly Cloudy,240,2012-10-15 17:15:00
1:35 PM,64.4,48.2,56,29.90,10.0,West,13.8,-,N/A,,Mostly Cloudy,260,2012-10-15 17:35:00
1:55 PM,64.4,46.4,52,29.89,10.0,WSW,12.7,-,N/A,,Mostly Cloudy,240,2012-10-15 17:55:00
2:15 PM,64.4,46.4,52,29.90,10.0,WSW,9.2,-,N/A,,Mostly Cloudy,250,2012-10-15 18:15:00
2:35 PM,64.4,46.4,52,29.89,10.0,WSW,8.1,-,N/A,,Mostly Cloudy,250,2012-10-15 18:35:00
2:55 PM,62.6,46.4,55,29.88,10.0,WSW,10.4,-,N/A,,Mostly Cloudy,250,2012-10-15 18:55:00
3:15 PM,62.6,46.4,55,29.88,10.0,WSW,12.7,-,N/A,,Partly Cloudy,250,2012-10-15 19:15:00
3:35 PM,62.6,46.4,55,29.88,10.0,WNW,6.9,-,N/A,,Mostly Cloudy,290,2012-10-15 19:35:00
3:55 PM,64.4,44.6,49,29.88,10.0,WNW,15.0,-,N/A,,Mostly Cloudy,290,2012-10-15 19:55:00
4:15 PM,62.6,46.4,55,29.88,10.0,West,8.1,-,N/A,,Overcast,280,2012-10-15 20:15:00
4:35 PM,62.6,44.6,52,29.88,10.0,WNW,6.9,-,N/A,,Scattered Clouds,300,2012-10-15 20:35:00
4:55 PM,64.4,44.6,49,29.88,10.0,West,11.5,-,N/A,,Scattered Clouds,270,2012-10-15 20:55:00
5:15 PM,62.6,42.8,48,29.88,10.0,WNW,8.1,-,N/A,,Mostly Cloudy,300,2012-10-15 21:15:00
5:35 PM,62.6,42.8,48,29.89,10.0,Variable,6.9,-,N/A,,Mostly Cloudy,0,2012-10-15 21:35:00
5:55 PM,62.6,39.2,42,29.89,10.0,West,9.2,-,N/A,,Scattered Clouds,270,2012-10-15 21:55:00
6:15 PM,60.8,39.2,45,29.90,10.0,Variable,5.8,-,N/A,,Mostly Cloudy,0,2012-10-15 22:15:00
6:35 PM,60.8,39.2,45,29.91,10.0,West,8.1,-,N/A,,Mostly Cloudy,280,2012-10-15 22:35:00
6:55 PM,57.2,41.0,55,29.91,10.0,Variable,5.8,-,N/A,,Partly Cloudy,0,2012-10-15 22:55:00
7:15 PM,55.4,42.8,63,29.92,10.0,WNW,3.5,-,N/A,,Partly Cloudy,290,2012-10-15 23:15:00
7:35 PM,51.8,44.6,76,29.93,10.0,WNW,3.5,-,N/A,,Clear,290,2012-10-15 23:35:00
7:55 PM,50.0,44.6,82,29.94,10.0,NW,3.5,-,N/A,,Clear,310,2012-10-15 23:55:00
8:15 PM,51.8,42.8,71,29.94,10.0,Calm,Calm,-,N/A,,Clear,0,2012-10-16 00:15:00
8:35 PM,50.0,44.6,82,29.95,10.0,Calm,Calm,-,N/A,,Clear,0,2012-10-16 00:35:00
8:55 PM,48.2,42.8,82,29.96,10.0,Calm,Calm,-,N/A,,Clear,0,2012-10-16 00:55:00
9:15 PM,48.2,42.8,82,29.96,10.0,WNW,3.5,-,N/A,,Clear,290,2012-10-16 01:15:00
9:35 PM,48.2,42.8,82,29.96,10.0,Calm,Calm,-,N/A,,Clear,0,2012-10-16 01:35:00
9:55 PM,46.4,42.8,87,29.96,10.0,Calm,Calm,-,N/A,,Clear,0,2012-10-16 01:55:00
10:15 PM,46.4,42.8,87,29.96,10.0,Calm,Calm,-,N/A,,Clear,0,2012-10-16 02:15:00
10:35 PM,44.6,42.8,93,29.95,10.0,Calm,Calm,-,N/A,,Clear,0,2012-10-16 02:35:00
10:55 PM,44.6,42.8,93,29.96,10.0,Calm,Calm,-,N/A,,Clear,0,2012-10-16 02:55:00
11:15 PM,44.6,42.8,93,29.96,10.0,Calm,Calm,-,N/A,,Partly Cloudy,0,2012-10-16 03:15:00
11:35 PM,44.6,41.0,87,29.96,10.0,Calm,Calm,-,N/A,,Partly Cloudy,0,2012-10-16 03:35:00
11:55 PM,44.6,42.8,93,29.97,10.0,Calm,Calm,-,N/A,,Clear,0,2012-10-16 03:55:00